Clinton, OK

8:11 PM CDT on May 26, 2017 (GMT -0500)
Clinton Municipal

Weather History for KCLK - October, 2011

Change the Weather History Date:

Monday, October 24, 2011

  Actual Average (KCSM) Record (KCSM)
Temperature  
Mean Temperature 64 °F -  
Max Temperature 82 °F 67 °F 86 °F (2014)
Min Temperature 46 °F 46 °F 28 °F (2005)
Degree Days  
Heating Degree Days 1    
Growing Degree Days 14 (Base 50)    
Moisture  
Dew Point 40 °F    
Average Humidity 47    
Maximum Humidity 93    
Minimum Humidity 15    
Precipitation  
Precipitation 0.00 in - - ()
Sea Level Pressure  
Sea Level Pressure 30.10 in    
Wind  
Wind Speed 8 mph (South)    
Max Wind Speed 23 mph    
Max Gust Speed 30 mph    
Visibility 10 miles    
Events      
Averages and records for this station are not official NWS values.
T = Trace of Precipitation, MM = Missing Value Source: NWS Daily Summary

Daily Weather History Graph

Daily Weather History Graph

Search for Another Location

Airport or City:

Trip Planner

Search our weather history database for the weather conditions in past years. The results will help you decide how hot, cold, wet, or windy it might be!

Date:

Astronomy

Oct. 24, 2011 Rise Set
Actual Time 7:49 AM CDT 6:49 PM CDT
Civil Twilight 7:23 AM CDT 7:15 PM CDT
Nautical Twilight 6:54 AM CDT 7:45 PM CDT
Astronomical Twilight 6:24 AM CDT 8:14 PM CDT
Moon 5:14 AM CDT (10/24) 5:12 PM CDT (10/24)
Length of Visible Light 11h 51m
Length of Day
10h 59m
Waning Crescent, 7% of the Moon is Illuminated
Oct 24
Waning Crescent
Oct 26
New
Nov 2
First Quarter
Nov 10
Full
Nov 18
Last Quarter

Hourly Weather History & Observations

Time (CDT) Temp. Windchill Dew Point Humidity Pressure Visibility Wind Dir Wind Speed Gust Speed Precip Events Conditions
12:15 AM 55.4 °F - 42.8 °F 63% 30.11 in 10.0 mi SSE 4.6 mph - N/A   Clear
12:35 AM 55.4 °F - 42.8 °F 63% 30.11 in 10.0 mi South 3.5 mph - N/A   Clear
12:55 AM 57.2 °F - 44.6 °F 63% 30.12 in 10.0 mi South 5.8 mph - N/A   Clear
1:15 AM 55.4 °F - 46.4 °F 72% 30.12 in 10.0 mi South 4.6 mph - N/A   Clear
1:35 AM 57.2 °F - 46.4 °F 67% 30.12 in 10.0 mi South 3.5 mph - N/A   Clear
1:55 AM 50.0 °F - 42.8 °F 76% 30.14 in 10.0 mi NNE 5.8 mph - N/A   Clear
2:15 AM 53.6 °F - 44.6 °F 72% 30.14 in 10.0 mi NNE 5.8 mph - N/A   Clear
2:35 AM 53.6 °F - 42.8 °F 67% 30.13 in 10.0 mi NNE 4.6 mph - N/A   Clear
2:55 AM 53.6 °F - 44.6 °F 72% 30.13 in 10.0 mi NE 5.8 mph - N/A   Clear
3:15 AM 53.6 °F - 44.6 °F 72% 30.13 in 10.0 mi ENE 3.5 mph - N/A   Clear
3:35 AM 53.6 °F - 44.6 °F 72% 30.13 in 10.0 mi East 4.6 mph - N/A   Clear
4:35 AM 51.8 °F - 42.8 °F 71% 30.13 in 10.0 mi Calm Calm - N/A   Clear
4:55 AM 50.0 °F - 42.8 °F 76% 30.13 in 10.0 mi Calm Calm - N/A   Clear
5:15 AM 50.0 °F - 44.6 °F 82% 30.13 in 10.0 mi Calm Calm - N/A   Clear
5:35 AM 50.0 °F - 44.6 °F 82% 30.13 in 10.0 mi Calm Calm - N/A   Clear
5:55 AM 50.0 °F - 44.6 °F 82% 30.13 in 10.0 mi Calm Calm - N/A   Clear
6:15 AM 50.0 °F - 44.6 °F 82% 30.13 in 10.0 mi Calm Calm - N/A   Clear
6:35 AM 50.0 °F - 44.6 °F 82% 30.14 in 10.0 mi Calm Calm - N/A   Clear
6:55 AM 48.2 °F - 44.6 °F 87% 30.14 in 10.0 mi Calm Calm - N/A   Clear
7:15 AM 50.0 °F - 44.6 °F 82% 30.14 in 10.0 mi Calm Calm - N/A   Clear
7:35 AM 50.0 °F - 44.6 °F 82% 30.14 in 10.0 mi SSE 4.6 mph - N/A   Clear
7:55 AM 46.4 °F 44.3 °F 44.6 °F 93% 30.14 in 10.0 mi SSE 4.6 mph - N/A   Clear
8:35 AM 50.0 °F - 46.4 °F 87% 30.16 in 10.0 mi Calm Calm - N/A   Clear
8:55 AM 51.8 °F - 48.2 °F 88% 30.16 in 10.0 mi SSE 3.5 mph - N/A   Clear
9:15 AM 53.6 °F - 50.0 °F 88% 30.17 in 10.0 mi SSE 3.5 mph - N/A   Clear
9:35 AM 55.4 °F - 50.0 °F 82% 30.17 in 10.0 mi SSE 5.8 mph - N/A   Clear
9:55 AM 60.8 °F - 50.0 °F 68% 30.17 in 10.0 mi SSE 8.1 mph - N/A   Clear
10:15 AM 60.8 °F - 48.2 °F 63% 30.17 in 10.0 mi SSE 6.9 mph - N/A   Clear
10:35 AM 62.6 °F - 48.2 °F 59% 30.17 in 10.0 mi SSE 6.9 mph - N/A   Clear
10:55 AM 66.2 °F - 48.2 °F 52% 30.17 in 10.0 mi South 10.4 mph - N/A   Clear
11:15 AM 68.0 °F - 48.2 °F 49% 30.17 in 10.0 mi South 8.1 mph - N/A   Clear
11:35 AM 71.6 °F - 48.2 °F 43% 30.17 in 10.0 mi South 6.9 mph - N/A   Clear
11:55 AM 77.0 °F - 41.0 °F 28% 30.16 in 10.0 mi SW 13.8 mph 19.6 mph N/A   Clear
12:15 PM 77.0 °F - 39.2 °F 26% 30.16 in 10.0 mi SSW 11.5 mph - N/A   Clear
12:35 PM 78.8 °F - 35.6 °F 21% 30.15 in 10.0 mi SW 13.8 mph - N/A   Clear
12:55 PM 78.8 °F - 35.6 °F 21% 30.14 in 10.0 mi SSW 15.0 mph 20.7 mph N/A   Clear
1:15 PM 80.6 °F - 33.8 °F 18% 30.12 in 10.0 mi SSW 17.3 mph 24.2 mph N/A   Clear
1:35 PM 80.6 °F - 32.0 °F 17% 30.11 in 10.0 mi SSW 12.7 mph 25.3 mph N/A   Clear
1:55 PM 80.6 °F - 32.0 °F 17% 30.10 in 10.0 mi South 13.8 mph 23.0 mph N/A   Clear
2:15 PM 82.4 °F - 32.0 °F 16% 30.09 in 10.0 mi South 18.4 mph 21.9 mph N/A   Clear
2:35 PM 82.4 °F - 30.2 °F 15% 30.08 in 10.0 mi South 18.4 mph 26.5 mph N/A   Clear
2:55 PM 82.4 °F - 32.0 °F 16% 30.07 in 10.0 mi SSW 18.4 mph 28.8 mph N/A   Clear
3:15 PM 82.4 °F - 32.0 °F 16% 30.06 in 10.0 mi South 20.7 mph 25.3 mph N/A   Clear
3:35 PM 82.4 °F - 32.0 °F 16% 30.05 in 10.0 mi South 16.1 mph 29.9 mph N/A   Clear
3:55 PM 82.4 °F - 30.2 °F 15% 30.04 in 10.0 mi South 21.9 mph 27.6 mph N/A   Clear
4:15 PM 82.4 °F - 30.2 °F 15% 30.04 in 10.0 mi South 20.7 mph 29.9 mph N/A   Clear
4:35 PM 82.4 °F - 32.0 °F 16% 30.04 in 10.0 mi South 20.7 mph 27.6 mph N/A   Clear
4:55 PM 80.6 °F - 32.0 °F 17% 30.04 in 10.0 mi South 18.4 mph 29.9 mph N/A   Clear
5:15 PM 80.6 °F - 32.0 °F 17% 30.03 in 10.0 mi South 23.0 mph 28.8 mph N/A   Clear
5:35 PM 80.6 °F - 33.8 °F 18% 30.02 in 10.0 mi South 19.6 mph 25.3 mph N/A   Clear
5:55 PM 80.6 °F - 32.0 °F 17% 30.02 in 10.0 mi South 20.7 mph 27.6 mph N/A   Clear
6:15 PM 78.8 °F - 30.2 °F 17% 30.02 in 10.0 mi South 19.6 mph 26.5 mph N/A   Clear
6:35 PM 77.0 °F - 32.0 °F 19% 30.02 in 10.0 mi South 17.3 mph 23.0 mph N/A   Clear
6:55 PM 75.2 °F - 32.0 °F 21% 30.02 in 10.0 mi SSE 17.3 mph - N/A   Clear
7:15 PM 73.4 °F - 35.6 °F 25% 30.02 in 10.0 mi SSE 17.3 mph - N/A   Clear
7:35 PM 73.4 °F - 37.4 °F 27% 30.02 in 10.0 mi SSE 17.3 mph 23.0 mph N/A   Clear
7:55 PM 71.6 °F - 37.4 °F 29% 30.02 in 10.0 mi SSE 19.6 mph 23.0 mph N/A   Clear
8:15 PM 71.6 °F - 37.4 °F 29% 30.02 in 10.0 mi SSE 15.0 mph 23.0 mph N/A   Clear
8:35 PM 69.8 °F - 37.4 °F 31% 30.03 in 10.0 mi SSE 15.0 mph - N/A   Clear
8:55 PM 68.0 °F - 37.4 °F 33% 30.02 in 10.0 mi SSE 12.7 mph - N/A   Clear
9:15 PM 68.0 °F - 37.4 °F 33% 30.02 in 10.0 mi SSE 13.8 mph - N/A   Clear
9:35 PM 66.2 °F - 35.6 °F 32% 30.02 in 10.0 mi South 13.8 mph - N/A   Clear
10:35 PM 64.4 °F - 32.0 °F 30% 30.03 in 10.0 mi SSE 12.7 mph - N/A   Clear
10:55 PM 64.4 °F - 32.0 °F 30% 30.03 in 10.0 mi SSE 15.0 mph - N/A   Clear
11:15 PM 64.4 °F - 33.8 °F 32% 30.02 in 10.0 mi SSE 15.0 mph - N/A   Clear
11:35 PM 64.4 °F - 39.2 °F 40% 30.02 in 10.0 mi SSE 16.1 mph 21.9 mph N/A   Clear
11:55 PM 64.4 °F - 42.8 °F 45% 30.01 in 10.0 mi SSE 12.7 mph 18.4 mph N/A   Clear